Location: Byszew
(52.1813°N, 19.2693°E)
Time: 04:04:01
(UTC+00:00)

Envisat - Pass Details

Date: 28 January 2022
Orbit: 764 x 765 km, 98.2° (Epoch: 25 May)

Event Time Altitude Azimuth Distance (km) Brightness Sun altitude
Rises 16:01:40 0° 212° (SSW) 3,220 7.2 -6.2°
Reaches altitude 10° 16:04:45 10° 232° (SW) 2,300 6.9 -6.7°
Maximum altitude 16:08:04 17° 273° (W) 1,848 6.1 -7.1°
Drops below altitude 10° 16:11:24 10° 314° (NW) 2,312 5.9 -7.6°
Sets 16:14:31 0° 334° (NNW) 3,244 6.3 -8.1°
